Погода Баку

Погода Баку : погода сейчас, прогноз погоды и архив. Всё, что Вы хотите узнать о погоде Баку!

Поиск расширенной информации на нашем сайте:

Другие новости

Новости СМИ2

Главная страница сайта

Новости сайта

03.07.2017

Напоминаем, что на нашем специализированном сайте Метеоцентр.Азия вы можете получить высокодетализированные автоматические прогнозы погоды по пунктам России, СНГ и мира в авиационном формате (включающие направление и скорость ветра, видимость, явления погоды, количество и форму облачности, нижнюю и верхнюю границу облачности).


Погода Баку - сегодня

Время (UTC), дата Ветер
(°,м/с) 
Видим.   Явления Облачность Т
(°С)
Тd
(°С)
f(%) Тe
(°С)
Pmin
(гПа)
dP
(гПа)
Po
(мм)
O2
(г/м3)
Тmin Tmax R s Состояние
почвы
12 19.02.18 320 (СЗ) 10 км    10/10 300 м 
[Sc]
+6.2 +2.6 78 +4  1018.1  -0.4  764  300           
15 19.02.18 270 (З) 10 км    10/10 600 м 
[Sc]
+4.8 +2.6 86 +3  1019.4  1.3  765  302           
21 19.02.18 250 (З) 10 км    10/0 средняя 
[Ac As]
+4.5 +2.5 87 +4  1020.3  765  302           
00 20.02.18 250 (З) 10 км    10/0 средняя 
[Ac As]
+5 +3 87 +5  1020.6  0.3  766  302           
03 20.02.18 270 (З) 10 км    10/10 600 м 
[Sc]
+5.1 +2.9 86 +4  1020.6  766  302           
09 20.02.18 тихо ()   10 км    10/10 600 м 
[Sc]
+7.7 +2.7 71 +8  1020.6  -0.7  766  299           
12 20.02.18 070 (В) 10 км    10/10 600 м 
[Sc]
+8.1 +4.1 76 +8  1019.3  -1.3  765  298           
15 20.02.18 120 (ЮВ) 10 км    10/10 1000 м 
[Sc]
+6.9 +3.6 79 +7  1020.1  0.8  765  299           
21 20.02.18 030 (СВ) 10 км    10/10 600 м 
[Sc]
+6 +4.4 89 +7  1020.8  766  301           
00 21.02.18 тихо ()   10 км  слаб. дождь  10/10 600 м 
[Sc]
+5.7 +4.5 92 +6  1020.9  0.1  766  301           
03 21.02.18 280 (З) 10 км  {дождь}  10/10 600 м 
[Sc]
+5.8 +4.6 92 +7  1020.9  766  301           
06 21.02.18 260 (З) 4000 м  слаб. дождь  10/10 200 м 
[Sc]
+6 +5.1 94 +6  1021.5  0.6  766  300  +5.6    0.6     
09 21.02.18 340 (С) 4000 м  {дождь}  10/10 200 м 
[Sc]
+6.4 +5.5 94 +6  1021  -0.5  766  300           
12 21.02.18 320 (СЗ) 4000 м    10/10 200 м 
[St]
+6 +4.9 93 +5  1021  766  301           
15 21.02.18 300 (СЗ) 4000 м  слаб. морось  10/10 100 м 
[St]
+5.3 +4.4 94 +4  1021.2  0.2  766  301           
21 21.02.18 тихо ()   10 км  {морось}  10/10 200 м 
[St]
+5.3 +4.6 95 +5  1020.5  -1.1  765  301           
00 22.02.18 тихо ()   4000 м  слаб. морось  10/10 100 м 
[St]
+5.4 +4.7 95 +5  1019.3  -1.2  765  301           
03 22.02.18 тихо ()   4000 м  слаб. дождь{морось}  10/10 300 м 
[Sc]
+6 +5.3 95 +6  1018.9  -0.4  764  300           
06 22.02.18 120 (ЮВ) 10 км  слаб. дождь  10/10 600 м 
[Sc]
+7.4 +6.7 95 +7  1018.4  -0.5  764  298  +5.1       
09 22.02.18 140 (ЮВ) 10 км    10/10 600 м 
[Sc]
+9 +7.7 92 +8  1017.2  -1.2  763  296           
12 22.02.18 140 (ЮВ) 10 км    10/10 600 м 
[Sc]
+9 +7.1 88 +8  1016.2  -1  762  295           
15 22.02.18 120 (ЮВ) 10 км    10/10 600 м 
[Sc]
+7.8 +6.2 90 +8  1016.7  0.5  763  297           
21 22.02.18 300 (СЗ) 10 км    10/10 600 м 
[Sc]
+5.8 +4.6 92 +5  1017.5  0.2  763  300           
00 23.02.18 300 (СЗ) 10 км    10/10 600 м 
[Sc]
+5.7 +4.3 91 +5  1017  -0.5  763  300           
03 23.02.18 310 (СЗ) 10 км    10/10 600 м 
[Sc]
+5.7 +4.3 91 +5  1017.3  0.3  763  300           
Время (UTC), дата Ветер
(°,м/с) 
Видим.   Явления Облачность Т
(°С)
Тd
(°С)
f(%) Тe
(°С)
Pmin
(гПа)
dP
(гПа)
Po
(мм)
O2
(г/м3)
Тmin Tmax R s Состояние
почвы

Для получения пояснительной информации подведите курсор к названию столбца.

ПОГОДА Баку - архив

Всё, что Вы хотите узнать о погоде Баку - удобно и подробно!

Выберите нужную дату (начиная с 1 января 2015* года) и нажмите кнопку "Найти".
Будут отображены архивные сводки погоды по пункту Баку, начиная с указанной даты.


Отображать данные в формате CSV (для использования в таблицах Excel)


Внимание! Наш архив погоды предназначен исключительно для личного некоммерческого использования в познавательных целях. Если Вам необходимы официальные справки о состоянии погоды (для производственных, юридических, коммерческих и т.п. целей), обращайтесь в органы Росгидромета.

*Примечание: данная дата относится к архиву по метеостанциям СССР (Россия, СНГ, Балтия).
Архив по метеостанциям Зарубежной Европы и Азии (кроме Китая) хранится 10 дней, по другим регионам земного шара (Китай, Африка, Америка, Австралия, Океания) - 1 день.

Баку - район местоположения метеостанции


Название, широта, долгота, высота метеостанции:
Баку (Гейдар Алиев) 40.4°ш. 50.1°д. -1 м над ур. моря [Азербайджан]

Дополнительная информация

В oтличие oт бoльшинства пoгoдных сайтoв мы публикуем пoдрoбную метеoинфoрмацию в детальнoм прoфессиoнальнoм фoрмате.

Характеристики температуры и влажнoсти вoздуха измеряются на высoте 2 м в тени вдали oт зданий и деревьев.
Скoрoсть ветра измеряется на высoте 10 м (на урoвне рoста челoвека скoрoсть ветра ниже в 1.5-2 раза). Если метеoстанция нахoдится в гoрoде или в лесу, тo скoрoсть ветра занижена на 2-4 м/с пo сравнению с oткрытым местoм. Скoрoсть ветра над акватoриями крупных рек и oзёр, а также на вершинах хoлмoв на 2-5 м/с выше, чем в oбычных услoвиях.
Атмoсфернoе давление в разных тoчках местнoсти мoжет значительнo oтличаться oт давления на метеoстанции, в зависимoсти oт услoвий рельефа (при пoдъёме на 10 м давление пoнижается примернo на 1 мм рт.ст.).